User: anonymous   Login
Location: Anglesey
(53.1800°N, 4.2200°W)
Time: 05:11:34
(UTC+00:00)
Language:

Envisat - Orbit

View from above orbital plane
View from above orbital plane
View from above satellite
View from above satellite

Ground track
Ground track

The orbit data is extracted from the following two-line orbital elements,

1 27386U 02009A   17351.74571980 -.00000011  00000-0  98622-5 0  9990
2 27386  98.2093  29.1343 0001483  82.8470 277.2873 14.37910899827459
Epoch (UTC): 17 December 2017 17:53:50
Eccentricity: 0.0001483
inclination: 98.2093°
perigee height: 764 km
apogee height: 766 km
right ascension of ascending node: 29.1343°
argument of perigee: 82.8470°
revolutions per day: 14.37910899
mean anomaly at epoch: 277.2873°
orbit number at epoch: 82745

The dashed part of the orbit path shows where the satellite is in the earth's shadow,  

DLR